Regional Weather Roundup
Issued by NWS

Home | Current Version | Previous Version | Text Only | Print | Product List | Glossary On
Versions: 1 2 3 4 5 6 7 8 9 10 11 12 13 14 15 16 17 18 19 20 21 22 23 24 25 26 27 28
000
ASUS42 KTBW 250816
RWRFL
FLORIDA REGIONAL WEATHER ROUNDUP
NATIONAL WEATHER SERVICE TAMPA BAY RUSKIN FL
300 AM EST SAT FEB 25 2017

NOTE: "FAIR" INDICATES FEW OR NO CLOUDS BELOW 12,000 FEET WITH NO
SIGNIFICANT WEATHER AND/OR OBSTRUCTIONS TO VISIBILITY.

FLZ001>010-012>015-112-114-115-250900-
PANHANDLE FLORIDA

CITY           SKY/WX    TMP DP  RH WIND       PRES   REMARKS
PENSACOLA      CLOUDY    69  66  90 W7        29.84S
PENSACOLA NAS  MOCLDY    68  67  96 CALM      29.84S
CRESTVIEW      CLOUDY    66  65  96 W6        29.85F
DUKE FIELD     MOCLDY    64  64 100 SW5       29.83S FOG
VALPARAISO     PTCLDY    63  62  98 CALM      29.83F FOG
MARY ESTHER    PTCLDY    68  61  78 W5        29.83S
TRI COUNTY     CLOUDY    64  64 100 W6        29.85S
PANAMA CITY    FOG       60  59  96 CALM      29.83S VSB 1/2
TYNDALL AFB    CLEAR     65  64  96 W6        29.84S
APALACHICOLA   CLEAR     64  64 100 W6        29.83R

STATION/POSITION SKY/WX   TEMP    WIND        PRES    WAVE   SWELL
                          AIR SEA DIR/SP/G            HT/PER HT/PER
                          (F)     (DEG/KT/KT) (MB)    (FT/S) (FT/S)
30.1N   87.6W              70 69  260/ 12/ 12 1010.6R   1/ 4
28.8N   86.0W              71 71              1010.7R   1/ 4
PANAMA CITY BEAC           68     250/  8/ 10 1010.6R
TOWER C                    67     260/ 12/ 12 1010.5R
28.5N   84.5W              69 70  220/  6/  8 1009.8F   1

$$
FLZ011-016>038-118-127-128-134-139-239-250900-
NORTH FLORIDA

CITY           SKY/WX    TMP DP  RH WIND       PRES   REMARKS
MARIANNA       CLEAR     63  63 100 SW5       29.83S
TALLAHASSEE    FOG       61  61 100 W5        29.83R VSB 3/4
PERRY          MOCLDY    63  62  97 SE3       29.83S FOG
CROSS CITY     FOG       63  61  94 S3        29.83F VSB 1/4
LAKE CITY      FAIR      63  63 100 CALM      29.82F
GAINESVILLE    PTCLDY    62  61  96 CALM      29.83F FOG
WILLISTON      FOG       63  63 100 CALM      29.84S VSB 1/4
PALATKA        FOG       59  59 100 CALM      29.84F VSB 1/4
MAYPORT NAS    FOG       63  62  97 S5        29.82F VSB 1/4
JACKSONVILLE   FOG       58  58 100 S3        29.81F VSB 1/2
JAX NAS        MOCLDY    65  64  97 S6        29.82F
FERNANDINA BEA CLOUDY    66  64  94 S5        29.81F VSB 1/2
ST AUGUSTINE   FOG       63  61  94 CALM      29.83F VSB 1/2

STATION/POSITION SKY/WX   TEMP    WIND        PRES    WAVE   SWELL
                          AIR SEA DIR/SP/G            HT/PER HT/PER
                          (F)     (DEG/KT/KT) (MB)    (FT/S) (FT/S)
SHELL POINT      NOT AVBL
KEATON BEACH               67     200/  8/  8 1009.6F
CEDAR KEY                  64     230/  4/  5 1011.1F
FERNANDINA                 64 69  160/  4/  5 1010.2F
30.7N   81.3W                 64                N/A     4/10   2/12
MAYPORT                    63 67  220/  3/  5 1010.0F
31.4N   80.9W              64 62  140/  8/  8 1008.9F   4/ 9   5/ 9
ST AUGUSTINE               63 67  200/  3/  5 1010.5F

$$
FLZ040-043>046-052-053-057-058-063-144-250900-
INTERIOR CENTRAL FLORIDA

CITY           SKY/WX    TMP DP  RH WIND       PRES   REMARKS
OCALA          CLEAR     59  55  88 S3        29.84F
THE VILLAGES     N/A     63  63 100 CALM      29.75F
LEESBURG       CLEAR     66  63  90 S5        29.85F
SANFORD        FOG       64  63  96 W3        29.85F VSB 1
ORLANDO EXEC   CLEAR     65  63  93 CALM      29.85F
ORLANDO INTL   CLEAR     62  61  96 CALM      29.86F
KISSIMMEE      CLEAR     63  63 100 CALM      29.87F
WINTER HAVEN   CLEAR     64  61  90 CALM      29.87F
LAKELAND       FOG       61  61 100 CALM      29.86F VSB 1/4
BARTOW         FAIR      59  59 100 CALM      29.87S
OKEECHOBEE     CLOUDY    59  59 100 CALM      29.86S FOG

$$
FLZ041-047-054-059-064-141-147-250900-
EAST CENTRAL FLORIDA

CITY           SKY/WX    TMP DP  RH WIND       PRES   REMARKS
DAYTONA BEACH  FOG       62  62 100 W3        29.85S VSB 1/4
DELAND         FOG       63  63 100 SW3       29.85F VSB 1/2
JFK SPACE CTR  FOG       61  61 100 CALM      29.83S VSB 1/2
CAPE CANAVERAL FOG       61  59  94 NW3       29.83S VSB 1/2
PATRICK AFB    CLEAR     67  67  99 W5        29.84R
MELBOURNE      FOG       60  60 100 W7        29.84S VSB 3/4
VERO BEACH     FOG       59  59 100 W3        29.84S VSB 1/2
FT PIERCE      FOG       58  58 100 CALM      29.83S VSB 1/4
STUART         CLEAR     68  66  94 CALM      29.85S

STATION/POSITION SKY/WX   TEMP    WIND        PRES    WAVE   SWELL
                          AIR SEA DIR/SP/G            HT/PER HT/PER
                          (F)     (DEG/KT/KT) (MB)    (FT/S) (FT/S)
TRIDENT PIER               64 71  290/  2/  2 1011.6R
28.4N   80.5W                 72                N/A     3/11   2/11
27.5N   80.2W                 72                N/A     4/10   2/13

$$
FLZ050-056-061-142-242-148-248-149-249-151-251-155-255-
160-260-250900-
WEST CENTRAL FLORIDA

CITY           SKY/WX    TMP DP  RH WIND       PRES   REMARKS
CRYSTAL RIVER  CLOUDY    64  64 100 CALM      29.85S FOG
INVERNESS      FOG       64  64 100 S6        29.85F VSB 1/2
BROOKSVILLE    CLOUDY    66  65  96 S6        29.86F
CLEARWATER AIR CLOUDY    63  63 100 CALM      29.86F FOG
ST PETE CLEARW CLOUDY    66  63  90 W3        29.86F
TAMPA INTL     CLOUDY    67  64  90 W3        29.86F
TAMPA EXEC     CLOUDY    64  63  94 CALM      29.87F
PLANT CITY     FOG       64  64 100 NW3       29.87F VSB 1/4
MACDILL AFB    CLOUDY    65  65 100 CALM      29.86F
PETER O KNIGHT CLOUDY    68  68 100 CALM      29.86F
ST PETERSBURG  CLOUDY    66  64  93 SW3       29.85F
SARASOTA       CLOUDY    66  63  90 NW3       29.86S
VENICE         CLOUDY    66  64  94 W6        29.87F

STATION/POSITION SKY/WX   TEMP    WIND        PRES    WAVE   SWELL
                          AIR SEA DIR/SP/G            HT/PER HT/PER
                          (F)     (DEG/KT/KT) (MB)    (FT/S) (FT/S)
27.3N   84.2W                 71                N/A     1/ 6
CLEARWATER BEACH           65     160/  2/  3 1011.4F
MIDDLE TAMPA BAY           66     260/  1/  3 1011.5F
VENICE                     67 71  300/  6/  7 1011.0F

$$
FLZ066-069-070-075>078-162-262-165-265-250900-
SOUTHWEST FLORIDA AND KEYS

CITY           SKY/WX    TMP DP  RH WIND       PRES   REMARKS
PUNTA GORDA    PTCLDY    63  63 100 NW3       29.88F
FT MYERS       CLEAR     67  65  93 N3        29.86F
SOUTHWEST INTL CLEAR     66  64  93 CALM      29.87S
NAPLES         CLEAR     69  67  93 CALM      29.86F
MARCO ISLAND   MOCLDY    70  66  88 W3        29.87S
MARATHON       CLEAR     72  68  87 N6        29.86F
KEY WEST NAS   MOCLDY    69  65  86 N6        29.87F
KEY WEST INTL  MOCLDY    71  67  87 N5        29.88S

STATION/POSITION SKY/WX   TEMP    WIND        PRES    WAVE   SWELL
                          AIR SEA DIR/SP/G            HT/PER HT/PER
                          (F)     (DEG/KT/KT) (MB)    (FT/S) (FT/S)
NAPLES                        73              1011.2F
26.0N   85.6W              73 75   80/  6/  6 1011.5F   1/ 5   2/ 5
DRY TORTUGAS               71      CALM  /  1 1011.9F
SAND KEY                   70                 1012.2F
LONG KEY                   71 74  350/ 10/ 11 1011.6F

$$
FLZ067-068-071>074-168-172>174-250900-
SOUTHEAST FLORIDA

CITY           SKY/WX    TMP DP  RH WIND       PRES   REMARKS
W PALM BEACH   PTCLDY    66  64  93 CALM      29.84F
FT LAUDER-EXEC MOCLDY    68  63  84 SW3       29.84S
FT LAUDERDALE  PTCLDY    69  67  93 W3        29.84S
POMPANO BEACH  CLEAR     68  65  90 CALM      29.84S
PEMBROKE PINES MOCLDY    68  66  93 W8        29.86S FOG
OPA LOCKA      CLOUDY    70  66  87 W8        29.86S FOG
MIAMI          FOG       67  66  97 SW6       29.86S VSB 1/16
WEST KENDALL   FOG       68  66  93 W6        29.86S VSB 3/4
HOMESTEAD      MOCLDY    68  68 100 W8        29.85F

STATION/POSITION SKY/WX   TEMP    WIND        PRES    WAVE   SWELL
                          AIR SEA DIR/SP/G            HT/PER HT/PER
                          (F)     (DEG/KT/KT) (MB)    (FT/S) (FT/S)
PORT EVERGLADES            72     250/  3/  5 1010.6S
VIRGINIA KEY               69     270/  6/  7 1011.1F
LAKE WORTH                        290/  3/  3   N/A
FOWEY ROCKS                70 74  250/ 11/ 12 1011.6F
SETTLEMENT POINT           73      40/  5/  7 1010.2F

$$





USA.gov is the U.S. government's official web portal to all federal, state and local government web resources and services.